Геологический

Россия / Чукотский автономный округ     67°37′09″N   178°39′44″W
темп.,
°C
ветер,
м/с
пор.,
м/с
влажн.,
%
обл.,
%
осадки,
мм/ч
давл.,
гПа
погр.,
м
7 мая, пт
пт700:00−17ссз22945 0.0 10249
03:00−20сз119832 0.0 10249
06:00−17сз11955 0.0 102312
09:00−10сз11845 0.0 102160
12:00−6св11815 0.0 1020128
15:00−5всв11865 0.0 101981
18:00−9всв11926 0.0 101910
21:00−16св2110049 0.0 10219
8 мая, сб
сб800:00−18с1110097 0.0 10219
03:00−20сз1110097 0.0 10219
06:00−17сз119982 0.0 102127
09:00−10зсз11855 0.0 102071
12:00−7с11785 0.0 1019126
15:00−5всв128513 0.0 1018195
18:00−9всв229567 0.0 102010
21:00−16с2210049 0.0 10219
9 мая, вс
вс900:00−18сз2110098 0.0 102212
03:00−19сз2210095 0.1 102312
06:00−16сз229991 0.1 102339
09:00−12сз129350 0.0 102294
12:00−9сз118725 0.0 1022164
15:00−6св128674 0.0 1021272
18:00−7всв1193100 0.1 102263
21:00−10с119891 0.1 102310
10 мая, пн
пн1000:00−15сз1110082 0.1 102310
03:00−19сз11100100 0.0 10249
06:00−16сз1110095 0.0 102417
09:00−10сз119214 0.0 102377
12:00−8с11869 0.0 1023144
15:00−6ссв118553 0.0 1022129
18:00−8ссв119370 0.0 102210
21:00−13ссв119953 0.0 102310
11 мая, вт
вт1100:00−16ссз1110095 0.0 10239
03:00−18сз11100100 0.0 10249
06:00−12сз119667 0.0 102224
09:00−9сз119150 0.0 102283
12:00−6ссв118659 0.0 1022139
15:00−4ссв1187100 0.0 1021166
18:00−5ссв119456 0.0 102137
21:00−4с1196100 0.0 102214